Aviation Digital Data Service (ADDS)

Output produced by METARs form (0256 UTC 18 August 2017)
found at http://www.aviationweather.gov/adds/metars/
 
LECO 180230Z AUTO 16003KT 9000 NSC 19/18 Q1020
TAF LECO 180200Z 1803/1903 VRB04KT 9999 SCT030 TX23/1815Z TN16/1805Z 
     TEMPO 1803/1810 3000 -RADZ BKN010 
     PROB40 
     TEMPO 1803/1809 1400 RADZ BKN003 
     TEMPO 1809/1821 35010KT
       
LEAB 180200Z 17006KT CAVOK 23/12 Q1020 NOSIG
TAF LEAB 180200Z 1803/1812 16008KT CAVOK
       
TAF LERI 180200Z 1803/1812 VRB02KT CAVOK
       
LEAL 180252Z 01004KT 9999 FEW012 24/23 Q1017 NOSIG
TAF LEAL 172300Z 1800/1824 VRB03KT 9999 FEW020 TX33/1812Z TN23/1805Z 
     PROB30 
     TEMPO 1800/1807 BKN012 
     BECMG 1809/1812 09010KT 
     BECMG 1819/1821 VRB03KT
       
LEAM 180230Z AUTO 00000KT 9999 NCD 24/21 Q1016
TAF LEAM 180200Z 1803/1903 VRB03KT 9999 FEW025 TX31/1812Z TN24/1806Z 
     PROB40 
     TEMPO 1805/1808 BKN014 
     BECMG 1808/1810 20010KT 
     BECMG 1820/1822 VRB03KT
       
LEAS 180230Z AUTO 22007KT 8000 NCD 19/17 Q1019
TAF LEAS 180200Z 1803/1903 20004KT 9999 BKN020 TX22/1815Z TN17/1805Z 
     TEMPO 1803/1809 3000 -RADZ BKN010 
     PROB40 
     TEMPO 1809/1818 30010KT 
     PROB40 
     TEMPO 1818/1903 BKN010
       
LEMD 180230Z 00000KT CAVOK 24/10 Q1018 NOSIG
TAF LEMD 172300Z 1800/1906 VRB05KT CAVOK TX38/1816Z TN19/1906Z 
     PROB40 
     TEMPO 1811/1817 23010KT 
     BECMG 1821/1823 03010KT 
     PROB40 
     TEMPO 1822/1902 03015G25KT
       
LEBL 180230Z 30007KT CAVOK 24/18 Q1017 NOSIG
TAF LEBL 172300Z 1800/1824 VRB03KT 9999 FEW015 TX31/1812Z TN23/1805Z 
     BECMG 1800/1802 31005KT 
     BECMG 1808/1811 20010KT 
     BECMG 1819/1821 VRB03KT
       
LEBB 180230Z AUTO 12002KT 9999 BKN023/// 19/18 Q1019
TAF LEBB 172300Z 1800/1824 31005KT 9999 SCT040 TX25/1805Z TN17/1803Z 
     TEMPO 1800/1813 BKN010 
     PROB40 
     TEMPO 1803/1813 3000 -RADZ
       
LEBG 180230Z AUTO 04007KT 9999 NCD 17/11 Q1020
TAF LEBG 180200Z 1803/1812 04010KT CAVOK 
     TEMPO 1803/1806 VRB05KT
       
LEBA 180230Z AUTO 25003KT 9999 NCD 24/15 Q1016
TAF LEBA 180200Z 1803/1812 VRB03KT CAVOK
       
TAF LEVS 180200Z 1803/1812 VRB05KT CAVOK
       
GCFV 180230Z AUTO 01011KT CAVOK 24/17 Q1014
TAF GCFV 180200Z 1803/1903 35013KT CAVOK TX30/1813Z TN24/1805Z 
     BECMG 1809/1811 05014KT 
     BECMG 1823/1901 35015KT
       
TAF LEGT 171700Z 1718/1803 VRB05KT CAVOK
       
LEGE 180200Z VRB01KT CAVOK 20/18 Q1017
TAF LEGE 172300Z 1800/1824 VRB03KT CAVOK TX36/1814Z TN21/1805Z 
     BECMG 1810/1812 18010KT 
     BECMG 1820/1822 VRB03KT
       
GCLP 180230Z 01019KT CAVOK 26/15 Q1015 NOSIG
TAF GCLP 180200Z 1803/1903 36024KT CAVOK TX30/1813Z TN22/1805Z 
     PROB30 
     TEMPO 1803/1822 36024G34KT
       
LEGR 180230Z AUTO VRB01KT 9999 NCD 22/15 Q1019
TAF LEGR 180200Z 1803/1903 VRB02KT CAVOK TX40/1816Z TN18/1806Z 
     TEMPO 1818/1820 18010KT
       
GCHI 180230Z AUTO 35016KT 320V020 9999 OVC009/// 23/21 Q1017
TAF GCHI 180200Z 1803/1903 33014KT CAVOK TX29/1813Z TN23/1805Z 
     PROB30 
     TEMPO 1810/1821 34015G25KT
       
LEIB 180230Z VRB02KT CAVOK 23/22 Q1017 NOSIG
TAF LEIB 180200Z 1803/1903 VRB03KT 9999 FEW018 TX30/1812Z TN22/1805Z 
     BECMG 1810/1812 11007KT 
     BECMG 1821/1823 VRB03KT
       
LEAB 180200Z 17006KT CAVOK 23/12 Q1020 NOSIG
TAF LEAB 180200Z 1803/1812 16008KT CAVOK
       
LEAL 180252Z 01004KT 9999 FEW012 24/23 Q1017 NOSIG
TAF LEAL 172300Z 1800/1824 VRB03KT 9999 FEW020 TX33/1812Z TN23/1805Z 
     PROB30 
     TEMPO 1800/1807 BKN012 
     BECMG 1809/1812 09010KT 
     BECMG 1819/1821 VRB03KT
       
LEAM 180230Z AUTO 00000KT 9999 NCD 24/21 Q1016
TAF LEAM 180200Z 1803/1903 VRB03KT 9999 FEW025 TX31/1812Z TN24/1806Z 
     PROB40 
     TEMPO 1805/1808 BKN014 
     BECMG 1808/1810 20010KT 
     BECMG 1820/1822 VRB03KT
       
LEAO 172100Z VRB01KT CAVOK 26/04 Q1018
TAF LEAO 171700Z 1718/1803 VRB05KT CAVOK
       
LEAS 180230Z AUTO 22007KT 8000 NCD 19/17 Q1019
TAF LEAS 180200Z 1803/1903 20004KT 9999 BKN020 TX22/1815Z TN17/1805Z 
     TEMPO 1803/1809 3000 -RADZ BKN010 
     PROB40 
     TEMPO 1809/1818 30010KT 
     PROB40 
     TEMPO 1818/1903 BKN010
       
LEBA 180230Z AUTO 25003KT 9999 NCD 24/15 Q1016
TAF LEBA 180200Z 1803/1812 VRB03KT CAVOK
       
LEBB 180230Z AUTO 12002KT 9999 BKN023/// 19/18 Q1019
TAF LEBB 172300Z 1800/1824 31005KT 9999 SCT040 TX25/1805Z TN17/1803Z 
     TEMPO 1800/1813 BKN010 
     PROB40 
     TEMPO 1803/1813 3000 -RADZ
       
LEBG 180230Z AUTO 04007KT 9999 NCD 17/11 Q1020
TAF LEBG 180200Z 1803/1812 04010KT CAVOK 
     TEMPO 1803/1806 VRB05KT
       
LEBL 180230Z 30007KT CAVOK 24/18 Q1017 NOSIG
TAF LEBL 172300Z 1800/1824 VRB03KT 9999 FEW015 TX31/1812Z TN23/1805Z 
     BECMG 1800/1802 31005KT 
     BECMG 1808/1811 20010KT 
     BECMG 1819/1821 VRB03KT
       
LEBT 180200Z AUTO 35004KT 9999 // SCT008/// 22/18 Q1018
TAF LEBZ 172300Z 1800/1824 28009KT CAVOK TX38/1815Z TN21/1806Z
       
LECH 180230Z AUTO 00000KT 9999 NCD 21/19 Q1019
LECO 180230Z AUTO 16003KT 9000 NSC 19/18 Q1020
TAF LECO 180200Z 1803/1903 VRB04KT 9999 SCT030 TX23/1815Z TN16/1805Z 
     TEMPO 1803/1810 3000 -RADZ BKN010 
     PROB40 
     TEMPO 1803/1809 1400 RADZ BKN003 
     TEMPO 1809/1821 35010KT
       
TAF LECV 171700Z 1718/1803 VRB05KT CAVOK
       
LEGE 180200Z VRB01KT CAVOK 20/18 Q1017
TAF LEGE 172300Z 1800/1824 VRB03KT CAVOK TX36/1814Z TN21/1805Z 
     BECMG 1810/1812 18010KT 
     BECMG 1820/1822 VRB03KT
       
LEGR 180230Z AUTO VRB01KT 9999 NCD 22/15 Q1019
TAF LEGR 180200Z 1803/1903 VRB02KT CAVOK TX40/1816Z TN18/1806Z 
     TEMPO 1818/1820 18010KT
       
TAF LEGT 171700Z 1718/1803 VRB05KT CAVOK
       
LEHC 180230Z AUTO 08004KT 9999 NCD 21/16 Q1019
TAF LEHC 180200Z 1803/1903 10008KT CAVOK TX34/1815Z TN21/1805Z 
     BECMG 1813/1815 28013KT 
     BECMG 1900/1902 VRB03KT
       
LEIB 180230Z VRB02KT CAVOK 23/22 Q1017 NOSIG
TAF LEIB 180200Z 1803/1903 VRB03KT 9999 FEW018 TX30/1812Z TN22/1805Z 
     BECMG 1810/1812 11007KT 
     BECMG 1821/1823 VRB03KT
       
LEJR 180230Z AUTO 13003KT 9000 NCD 22/20 Q1015
TAF LEJR 172300Z 1800/1824 VRB03KT CAVOK TX38/1815Z TN21/1806Z 
     TEMPO 1816/1818 24010KT
       
LELC 172100Z 05003KT 9999 SCT010 26/23 Q1018 NOSIG
TAF LELC 172300Z 1800/1824 VRB02KT 9999 FEW015 TX29/1814Z TN23/1806Z 
     BECMG 1806/1808 09010KT 
     PROB40 
     TEMPO 1800/1809 BKN014
       
LELL 180230Z AUTO 27001KT 9999 NCD 21/19 Q1018
TAF LELL 180200Z 1803/1903 VRB03KT 9999 FEW030 TX35/1813Z TN20/1805Z 
     BECMG 1809/1812 18009KT 
     BECMG 1819/1821 VRB03KT
       
TAF LELN 180200Z 1803/1812 VRB05KT CAVOK
       
LELO 172100Z VRB01KT CAVOK 26/14 Q1018
TAF LELO 180200Z 1803/1812 29010KT CAVOK 
     TEMPO 1803/1806 VRB05KT
       
LEMD 180230Z 00000KT CAVOK 24/10 Q1018 NOSIG
TAF LEMD 172300Z 1800/1906 VRB05KT CAVOK TX38/1816Z TN19/1906Z 
     PROB40 
     TEMPO 1811/1817 23010KT 
     BECMG 1821/1823 03010KT 
     PROB40 
     TEMPO 1822/1902 03015G25KT
       
LEMG 180230Z 29003KT CAVOK 22/20 Q1016 NOSIG
TAF LEMG 172300Z 1800/1824 VRB02KT 9999 FEW020 TX29/1814Z TN23/1806Z 
     PROB40 
     TEMPO 1800/1807 4000 BR BKN014 
     BECMG 1809/1811 13007KT 
     BECMG 1820/1822 VRB02KT
       
LEMH 180230Z AUTO 31002KT 9999 NCD 21/19 Q1017
TAF LEMH 180200Z 1803/1903 VRB03KT 9999 FEW020 TX31/1812Z TN21/1805Z 
     BECMG 1806/1809 16008KT 
     BECMG 1823/1901 03008KT
       
LEMO 180200Z 15004KT CAVOK 23/19 Q1016 NOSIG
TAF LEMO 180200Z 1803/1812 VRB03KT CAVOK
       
LEPA 180230Z 04002KT CAVOK 22/19 Q1017 NOSIG
TAF LEPA 172300Z 1800/1824 VRB03KT 9999 FEW030 TX34/1812Z TN22/1805Z 
     BECMG 1809/1812 22010KT 
     BECMG 1819/1821 VRB03KT
       
LEPP 180230Z AUTO VRB02KT 9999 NCD 19/16 Q1019
TAF LEPP 180200Z 1803/1903 33007KT 9999 FEW040 TX29/1815Z TN15/1805Z 
     TEMPO 1812/1821 34017KT 
     PROB30 
     TEMPO 1812/1821 34020G30KT
       
TAF LERI 180200Z 1803/1812 VRB02KT CAVOK
       
LERS 180230Z AUTO 03002KT 9999 NCD 21/20 Q1017
TAF LERS 180200Z 1803/1903 VRB03KT 9999 FEW040 TX31/1813Z TN21/1805Z 
     BECMG 1809/1811 18007KT 
     BECMG 1821/1823 VRB03KT
       
LERT 180200Z 00000KT 6000 NSC 23/21 Q1015 NOSIG
TAF LERT 180200Z 1803/1812 VRB03KT CAVOK 
     PROB40 
     TEMPO 1803/1808 4000 BR
       
LESA 172100Z 00000KT CAVOK 22/13 Q1020
TAF LESA 172300Z 1800/1824 VRB05KT CAVOK TX33/1815Z TN13/1806Z 
     TEMPO 1812/1818 30012KT
       
LESO 180230Z AUTO 17003KT 9999 FEW011/// SCT018/// OVC024/// 21/20 Q1019
TAF LESO 172300Z 1800/1824 01006KT 9999 FEW040 TX25/1815Z TN19/1804Z 
     PROB40 
     TEMPO 1800/1824 BKN010 
     PROB30 
     TEMPO 1809/1824 3000 -RADZ BKN005
       
LEST 180230Z VRB01KT 9999 BKN011 BKN040 18/16 Q1021 TEMPO BKN009
TAF LEST 172300Z 1800/1824 VRB02KT 9999 FEW030 TX26/1815Z TN15/1805Z 
     TEMPO 1800/1810 3000 -RADZ BKN010 
     PROB30 
     TEMPO 1804/1809 1400 RADZ BKN002 
     BECMG 1810/1814 02010KT
       
TAF LESU 180200Z 1803/1903 VRB03KT 9999 FEW050 TX33/1815Z TN15/1805Z 
     BECMG 1809/1812 22012KT 
     BECMG 1819/1821 VRB04KT
       
LETL 180230Z AUTO 14004KT 9999 NCD 17/13 Q1023
LETO 180200Z 03004KT CAVOK 23/07 Q1018 NOSIG
TAF LETO 172300Z 1800/1824 VRB05KT CAVOK TX38/1816Z TN21/1806Z 
     PROB40 
     TEMPO 1811/1818 23010KT 
     BECMG 1821/1823 03010KT 
     PROB40 
     TEMPO 1822/1824 03015G25KT
       
LEVC 180230Z VRB02KT CAVOK 24/22 Q1017 NOSIG
TAF LEVC 172300Z 1800/1824 VRB03KT 9999 FEW020 TX34/1814Z TN21/1805Z 
     PROB30 
     TEMPO 1800/1808 BKN012 
     BECMG 1809/1812 11010KT 
     BECMG 1818/1820 04008KT
       
TAF LEVD 172300Z 1800/1824 VRB05KT CAVOK TX30/1815Z TN13/1806Z 
     BECMG 1819/1821 04012KT
       
TAF LEVS 180200Z 1803/1812 VRB05KT CAVOK
       
LEVT 180230Z 04007KT 9999 FEW008 BKN015 17/15 Q1020
TAF LEVT 172300Z 1800/1824 VRB02KT 9999 FEW010 TX24/1815Z TN15/1805Z 
     PROB30 
     TEMPO 1800/1808 BKN005 
     BECMG 1812/1814 01010KT
       
LEVX 180230Z 36003KT 9999 BKN029 19/17 Q1021 NOSIG
TAF LEVX 172300Z 1800/1824 VRB04KT 8000 FEW010 TX26/1814Z TN17/1804Z 
     PROB30 
     TEMPO 1800/1809 3000 BR BKN010 
     PROB30 
     TEMPO 1800/1809 1400 BCFG BKN003 
     BECMG 1810/1814 29010KT 
     BECMG 1818/1820 36010KT
       
LEXJ 180230Z AUTO 23003KT 9999 4900W OVC026/// 21/19 Q1019
TAF LEXJ 180200Z 1803/1903 20003KT 9999 FEW020 TX23/1815Z TN18/1803Z 
     PROB40 
     TEMPO 1803/1813 BKN010 
     PROB40 
     TEMPO 1803/1813 3000 -RADZ 
     PROB30 1803/1807 1500 RADZ BKN004 
     TEMPO 1810/1815 32010KT
       
LEZG 180230Z 09003KT 060V120 CAVOK 24/18 Q1017
TAF LEZG 172300Z 1800/1824 VRB05KT CAVOK TX36/1815Z TN22/1805Z 
     BECMG 1805/1808 30010KT 
     BECMG 1817/1819 33020G30KT
       
LEZL 180230Z 00000KT CAVOK 24/19 Q1015 NOSIG
TAF LEZL 180200Z 1803/1903 VRB03KT CAVOK TX40/1816Z TN22/1806Z 
     BECMG 1817/1819 24010KT 
     BECMG 1900/1902 VRB02KT
       
LEJR 180230Z AUTO 13003KT 9000 NCD 22/20 Q1015
TAF LEJR 172300Z 1800/1824 VRB03KT CAVOK TX38/1815Z TN21/1806Z 
     TEMPO 1816/1818 24010KT
       
GCGM 180230Z AUTO VRB01KT 9999 NCD 27/13 Q1016 RMK R09/00000KT ARP/00000KT
GCLA 180230Z AUTO 01011KT 9999 NCD 22/21 Q1018
TAF GCLA 180200Z 1803/1903 35010KT 9999 FEW015 TX29/1813Z TN23/1805Z
       
GCRR 180000Z 36021KT 9999 FEW020 23/20 Q1016
TAF GCRR 180200Z 1803/1903 36020KT 9999 FEW015 TX32/1813Z TN22/1805Z 
     PROB40 
     TEMPO 1803/1903 36020G30KT
       
TAF LELN 180200Z 1803/1812 VRB05KT CAVOK
       
LEMG 180230Z 29003KT CAVOK 22/20 Q1016 NOSIG
TAF LEMG 172300Z 1800/1824 VRB02KT 9999 FEW020 TX29/1814Z TN23/1806Z 
     PROB40 
     TEMPO 1800/1807 4000 BR BKN014 
     BECMG 1809/1811 13007KT 
     BECMG 1820/1822 VRB02KT
       
GEML 180230Z AUTO 15001KT 9999 SCT017/// 25/22 Q1016
TAF GEML 180200Z 1803/1903 09005KT 9999 FEW008 SCT015 TX28/1814Z TN24/1806Z 
     TEMPO 1803/1810 BKN012
       
LEMH 180230Z AUTO 31002KT 9999 NCD 21/19 Q1017
TAF LEMH 180200Z 1803/1903 VRB03KT 9999 FEW020 TX31/1812Z TN21/1805Z 
     BECMG 1806/1809 16008KT 
     BECMG 1823/1901 03008KT
       
LEAB 180200Z 17006KT CAVOK 23/12 Q1020 NOSIG
TAF LEAB 180200Z 1803/1812 16008KT CAVOK
       
LEAL 180252Z 01004KT 9999 FEW012 24/23 Q1017 NOSIG
TAF LEAL 172300Z 1800/1824 VRB03KT 9999 FEW020 TX33/1812Z TN23/1805Z 
     PROB30 
     TEMPO 1800/1807 BKN012 
     BECMG 1809/1812 09010KT 
     BECMG 1819/1821 VRB03KT
       
LEAM 180230Z AUTO 00000KT 9999 NCD 24/21 Q1016
TAF LEAM 180200Z 1803/1903 VRB03KT 9999 FEW025 TX31/1812Z TN24/1806Z 
     PROB40 
     TEMPO 1805/1808 BKN014 
     BECMG 1808/1810 20010KT 
     BECMG 1820/1822 VRB03KT
       
LEAO 172100Z VRB01KT CAVOK 26/04 Q1018
TAF LEAO 171700Z 1718/1803 VRB05KT CAVOK
       
LEAS 180230Z AUTO 22007KT 8000 NCD 19/17 Q1019
TAF LEAS 180200Z 1803/1903 20004KT 9999 BKN020 TX22/1815Z TN17/1805Z 
     TEMPO 1803/1809 3000 -RADZ BKN010 
     PROB40 
     TEMPO 1809/1818 30010KT 
     PROB40 
     TEMPO 1818/1903 BKN010
       
LEBA 180230Z AUTO 25003KT 9999 NCD 24/15 Q1016
TAF LEBA 180200Z 1803/1812 VRB03KT CAVOK
       
LEBB 180230Z AUTO 12002KT 9999 BKN023/// 19/18 Q1019
TAF LEBB 172300Z 1800/1824 31005KT 9999 SCT040 TX25/1805Z TN17/1803Z 
     TEMPO 1800/1813 BKN010 
     PROB40 
     TEMPO 1803/1813 3000 -RADZ
       
LEBG 180230Z AUTO 04007KT 9999 NCD 17/11 Q1020
TAF LEBG 180200Z 1803/1812 04010KT CAVOK 
     TEMPO 1803/1806 VRB05KT
       
LEBL 180230Z 30007KT CAVOK 24/18 Q1017 NOSIG
TAF LEBL 172300Z 1800/1824 VRB03KT 9999 FEW015 TX31/1812Z TN23/1805Z 
     BECMG 1800/1802 31005KT 
     BECMG 1808/1811 20010KT 
     BECMG 1819/1821 VRB03KT
       
LEBT 180200Z AUTO 35004KT 9999 // SCT008/// 22/18 Q1018
TAF LEBZ 172300Z 1800/1824 28009KT CAVOK TX38/1815Z TN21/1806Z
       
LECH 180230Z AUTO 00000KT 9999 NCD 21/19 Q1019
LECO 180230Z AUTO 16003KT 9000 NSC 19/18 Q1020
TAF LECO 180200Z 1803/1903 VRB04KT 9999 SCT030 TX23/1815Z TN16/1805Z 
     TEMPO 1803/1810 3000 -RADZ BKN010 
     PROB40 
     TEMPO 1803/1809 1400 RADZ BKN003 
     TEMPO 1809/1821 35010KT
       
TAF LECV 171700Z 1718/1803 VRB05KT CAVOK
       
LEGE 180200Z VRB01KT CAVOK 20/18 Q1017
TAF LEGE 172300Z 1800/1824 VRB03KT CAVOK TX36/1814Z TN21/1805Z 
     BECMG 1810/1812 18010KT 
     BECMG 1820/1822 VRB03KT
       
LEGR 180230Z AUTO VRB01KT 9999 NCD 22/15 Q1019
TAF LEGR 180200Z 1803/1903 VRB02KT CAVOK TX40/1816Z TN18/1806Z 
     TEMPO 1818/1820 18010KT
       
TAF LEGT 171700Z 1718/1803 VRB05KT CAVOK
       
LEHC 180230Z AUTO 08004KT 9999 NCD 21/16 Q1019
TAF LEHC 180200Z 1803/1903 10008KT CAVOK TX34/1815Z TN21/1805Z 
     BECMG 1813/1815 28013KT 
     BECMG 1900/1902 VRB03KT
       
LEIB 180230Z VRB02KT CAVOK 23/22 Q1017 NOSIG
TAF LEIB 180200Z 1803/1903 VRB03KT 9999 FEW018 TX30/1812Z TN22/1805Z 
     BECMG 1810/1812 11007KT 
     BECMG 1821/1823 VRB03KT
       
LEJR 180230Z AUTO 13003KT 9000 NCD 22/20 Q1015
TAF LEJR 172300Z 1800/1824 VRB03KT CAVOK TX38/1815Z TN21/1806Z 
     TEMPO 1816/1818 24010KT
       
LELC 172100Z 05003KT 9999 SCT010 26/23 Q1018 NOSIG
TAF LELC 172300Z 1800/1824 VRB02KT 9999 FEW015 TX29/1814Z TN23/1806Z 
     BECMG 1806/1808 09010KT 
     PROB40 
     TEMPO 1800/1809 BKN014
       
LELL 180230Z AUTO 27001KT 9999 NCD 21/19 Q1018
TAF LELL 180200Z 1803/1903 VRB03KT 9999 FEW030 TX35/1813Z TN20/1805Z 
     BECMG 1809/1812 18009KT 
     BECMG 1819/1821 VRB03KT
       
TAF LELN 180200Z 1803/1812 VRB05KT CAVOK
       
LELO 172100Z VRB01KT CAVOK 26/14 Q1018
TAF LELO 180200Z 1803/1812 29010KT CAVOK 
     TEMPO 1803/1806 VRB05KT
       
LEMD 180230Z 00000KT CAVOK 24/10 Q1018 NOSIG
TAF LEMD 172300Z 1800/1906 VRB05KT CAVOK TX38/1816Z TN19/1906Z 
     PROB40 
     TEMPO 1811/1817 23010KT 
     BECMG 1821/1823 03010KT 
     PROB40 
     TEMPO 1822/1902 03015G25KT
       
LEMG 180230Z 29003KT CAVOK 22/20 Q1016 NOSIG
TAF LEMG 172300Z 1800/1824 VRB02KT 9999 FEW020 TX29/1814Z TN23/1806Z 
     PROB40 
     TEMPO 1800/1807 4000 BR BKN014 
     BECMG 1809/1811 13007KT 
     BECMG 1820/1822 VRB02KT
       
LEMH 180230Z AUTO 31002KT 9999 NCD 21/19 Q1017
TAF LEMH 180200Z 1803/1903 VRB03KT 9999 FEW020 TX31/1812Z TN21/1805Z 
     BECMG 1806/1809 16008KT 
     BECMG 1823/1901 03008KT
       
LEMO 180200Z 15004KT CAVOK 23/19 Q1016 NOSIG
TAF LEMO 180200Z 1803/1812 VRB03KT CAVOK
       
LEPA 180230Z 04002KT CAVOK 22/19 Q1017 NOSIG
TAF LEPA 172300Z 1800/1824 VRB03KT 9999 FEW030 TX34/1812Z TN22/1805Z 
     BECMG 1809/1812 22010KT 
     BECMG 1819/1821 VRB03KT
       
LEPP 180230Z AUTO VRB02KT 9999 NCD 19/16 Q1019
TAF LEPP 180200Z 1803/1903 33007KT 9999 FEW040 TX29/1815Z TN15/1805Z 
     TEMPO 1812/1821 34017KT 
     PROB30 
     TEMPO 1812/1821 34020G30KT
       
TAF LERI 180200Z 1803/1812 VRB02KT CAVOK
       
LERS 180230Z AUTO 03002KT 9999 NCD 21/20 Q1017
TAF LERS 180200Z 1803/1903 VRB03KT 9999 FEW040 TX31/1813Z TN21/1805Z 
     BECMG 1809/1811 18007KT 
     BECMG 1821/1823 VRB03KT
       
LERT 180200Z 00000KT 6000 NSC 23/21 Q1015 NOSIG
TAF LERT 180200Z 1803/1812 VRB03KT CAVOK 
     PROB40 
     TEMPO 1803/1808 4000 BR
       
LESA 172100Z 00000KT CAVOK 22/13 Q1020
TAF LESA 172300Z 1800/1824 VRB05KT CAVOK TX33/1815Z TN13/1806Z 
     TEMPO 1812/1818 30012KT
       
LESO 180230Z AUTO 17003KT 9999 FEW011/// SCT018/// OVC024/// 21/20 Q1019
TAF LESO 172300Z 1800/1824 01006KT 9999 FEW040 TX25/1815Z TN19/1804Z 
     PROB40 
     TEMPO 1800/1824 BKN010 
     PROB30 
     TEMPO 1809/1824 3000 -RADZ BKN005
       
LEST 180230Z VRB01KT 9999 BKN011 BKN040 18/16 Q1021 TEMPO BKN009
TAF LEST 172300Z 1800/1824 VRB02KT 9999 FEW030 TX26/1815Z TN15/1805Z 
     TEMPO 1800/1810 3000 -RADZ BKN010 
     PROB30 
     TEMPO 1804/1809 1400 RADZ BKN002 
     BECMG 1810/1814 02010KT
       
TAF LESU 180200Z 1803/1903 VRB03KT 9999 FEW050 TX33/1815Z TN15/1805Z 
     BECMG 1809/1812 22012KT 
     BECMG 1819/1821 VRB04KT
       
LETL 180230Z AUTO 14004KT 9999 NCD 17/13 Q1023
LETO 180200Z 03004KT CAVOK 23/07 Q1018 NOSIG
TAF LETO 172300Z 1800/1824 VRB05KT CAVOK TX38/1816Z TN21/1806Z 
     PROB40 
     TEMPO 1811/1818 23010KT 
     BECMG 1821/1823 03010KT 
     PROB40 
     TEMPO 1822/1824 03015G25KT
       
LEVC 180230Z VRB02KT CAVOK 24/22 Q1017 NOSIG
TAF LEVC 172300Z 1800/1824 VRB03KT 9999 FEW020 TX34/1814Z TN21/1805Z 
     PROB30 
     TEMPO 1800/1808 BKN012 
     BECMG 1809/1812 11010KT 
     BECMG 1818/1820 04008KT
       
TAF LEVD 172300Z 1800/1824 VRB05KT CAVOK TX30/1815Z TN13/1806Z 
     BECMG 1819/1821 04012KT
       
TAF LEVS 180200Z 1803/1812 VRB05KT CAVOK
       
LEVT 180230Z 04007KT 9999 FEW008 BKN015 17/15 Q1020
TAF LEVT 172300Z 1800/1824 VRB02KT 9999 FEW010 TX24/1815Z TN15/1805Z 
     PROB30 
     TEMPO 1800/1808 BKN005 
     BECMG 1812/1814 01010KT
       
LEVX 180230Z 36003KT 9999 BKN029 19/17 Q1021 NOSIG
TAF LEVX 172300Z 1800/1824 VRB04KT 8000 FEW010 TX26/1814Z TN17/1804Z 
     PROB30 
     TEMPO 1800/1809 3000 BR BKN010 
     PROB30 
     TEMPO 1800/1809 1400 BCFG BKN003 
     BECMG 1810/1814 29010KT 
     BECMG 1818/1820 36010KT
       
LEXJ 180230Z AUTO 23003KT 9999 4900W OVC026/// 21/19 Q1019
TAF LEXJ 180200Z 1803/1903 20003KT 9999 FEW020 TX23/1815Z TN18/1803Z 
     PROB40 
     TEMPO 1803/1813 BKN010 
     PROB40 
     TEMPO 1803/1813 3000 -RADZ 
     PROB30 1803/1807 1500 RADZ BKN004 
     TEMPO 1810/1815 32010KT
       
LEZG 180230Z 09003KT 060V120 CAVOK 24/18 Q1017
TAF LEZG 172300Z 1800/1824 VRB05KT CAVOK TX36/1815Z TN22/1805Z 
     BECMG 1805/1808 30010KT 
     BECMG 1817/1819 33020G30KT
       
LEZL 180230Z 00000KT CAVOK 24/19 Q1015 NOSIG
TAF LEZL 180200Z 1803/1903 VRB03KT CAVOK TX40/1816Z TN22/1806Z 
     BECMG 1817/1819 24010KT 
     BECMG 1900/1902 VRB02KT
       
LEMO 180200Z 15004KT CAVOK 23/19 Q1016 NOSIG
TAF LEMO 180200Z 1803/1812 VRB03KT CAVOK
       
LEPP 180230Z AUTO VRB02KT 9999 NCD 19/16 Q1019
TAF LEPP 180200Z 1803/1903 33007KT 9999 FEW040 TX29/1815Z TN15/1805Z 
     TEMPO 1812/1821 34017KT 
     PROB30 
     TEMPO 1812/1821 34020G30KT
       
LERS 180230Z AUTO 03002KT 9999 NCD 21/20 Q1017
TAF LERS 180200Z 1803/1903 VRB03KT 9999 FEW040 TX31/1813Z TN21/1805Z 
     BECMG 1809/1811 18007KT 
     BECMG 1821/1823 VRB03KT
       
LERT 180200Z 00000KT 6000 NSC 23/21 Q1015 NOSIG
TAF LERT 180200Z 1803/1812 VRB03KT CAVOK 
     PROB40 
     TEMPO 1803/1808 4000 BR
       
LESA 172100Z 00000KT CAVOK 22/13 Q1020
TAF LESA 172300Z 1800/1824 VRB05KT CAVOK TX33/1815Z TN13/1806Z 
     TEMPO 1812/1818 30012KT
       
LESO 180230Z AUTO 17003KT 9999 FEW011/// SCT018/// OVC024/// 21/20 Q1019
TAF LESO 172300Z 1800/1824 01006KT 9999 FEW040 TX25/1815Z TN19/1804Z 
     PROB40 
     TEMPO 1800/1824 BKN010 
     PROB30 
     TEMPO 1809/1824 3000 -RADZ BKN005
       
LEXJ 180230Z AUTO 23003KT 9999 4900W OVC026/// 21/19 Q1019
TAF LEXJ 180200Z 1803/1903 20003KT 9999 FEW020 TX23/1815Z TN18/1803Z 
     PROB40 
     TEMPO 1803/1813 BKN010 
     PROB40 
     TEMPO 1803/1813 3000 -RADZ 
     PROB30 1803/1807 1500 RADZ BKN004 
     TEMPO 1810/1815 32010KT
       
LEST 180230Z VRB01KT 9999 BKN011 BKN040 18/16 Q1021 TEMPO BKN009
TAF LEST 172300Z 1800/1824 VRB02KT 9999 FEW030 TX26/1815Z TN15/1805Z 
     TEMPO 1800/1810 3000 -RADZ BKN010 
     PROB30 
     TEMPO 1804/1809 1400 RADZ BKN002 
     BECMG 1810/1814 02010KT
       
TAF LESU 180200Z 1803/1903 VRB03KT 9999 FEW050 TX33/1815Z TN15/1805Z 
     BECMG 1809/1812 22012KT 
     BECMG 1819/1821 VRB04KT
       
LEZL 180230Z 00000KT CAVOK 24/19 Q1015 NOSIG
TAF LEZL 180200Z 1803/1903 VRB03KT CAVOK TX40/1816Z TN22/1806Z 
     BECMG 1817/1819 24010KT 
     BECMG 1900/1902 VRB02KT
       
TAF LEBZ 172300Z 1800/1824 28009KT CAVOK TX38/1815Z TN21/1806Z
       
GCXO 180230Z AUTO 03005KT 340V070 9999 NCD 26/02 Q1020
TAF GCXO 180200Z 1803/1903 VRB05KT 9999 FEW005 TX29/1813Z TN18/1805Z 
     BECMG 1809/1810 33010KT
       
GCTS 180230Z 36004KT 300V090 CAVOK 25/16 Q1015 NOSIG
TAF GCTS 180200Z 1803/1903 VRB04KT CAVOK TX35/1813Z TN21/1805Z 
     BECMG 1809/1811 08020KT 
     PROB40 
     TEMPO 1809/1818 08020G30KT 
     PROB30 
     TEMPO 1812/1817 23011KT
       
LETO 180200Z 03004KT CAVOK 23/07 Q1018 NOSIG
TAF LETO 172300Z 1800/1824 VRB05KT CAVOK TX38/1816Z TN21/1806Z 
     PROB40 
     TEMPO 1811/1818 23010KT 
     BECMG 1821/1823 03010KT 
     PROB40 
     TEMPO 1822/1824 03015G25KT
       
LEVC 180230Z VRB02KT CAVOK 24/22 Q1017 NOSIG
TAF LEVC 172300Z 1800/1824 VRB03KT 9999 FEW020 TX34/1814Z TN21/1805Z 
     PROB30 
     TEMPO 1800/1808 BKN012 
     BECMG 1809/1812 11010KT 
     BECMG 1818/1820 04008KT
       
TAF LEVD 172300Z 1800/1824 VRB05KT CAVOK TX30/1815Z TN13/1806Z 
     BECMG 1819/1821 04012KT
       
LEVX 180230Z 36003KT 9999 BKN029 19/17 Q1021 NOSIG
TAF LEVX 172300Z 1800/1824 VRB04KT 8000 FEW010 TX26/1814Z TN17/1804Z 
     PROB30 
     TEMPO 1800/1809 3000 BR BKN010 
     PROB30 
     TEMPO 1800/1809 1400 BCFG BKN003 
     BECMG 1810/1814 29010KT 
     BECMG 1818/1820 36010KT
       
LEVT 180230Z 04007KT 9999 FEW008 BKN015 17/15 Q1020
TAF LEVT 172300Z 1800/1824 VRB02KT 9999 FEW010 TX24/1815Z TN15/1805Z 
     PROB30 
     TEMPO 1800/1808 BKN005 
     BECMG 1812/1814 01010KT
       
LEZG 180230Z 09003KT 060V120 CAVOK 24/18 Q1017
TAF LEZG 172300Z 1800/1824 VRB05KT CAVOK TX36/1815Z TN22/1805Z 
     BECMG 1805/1808 30010KT 
     BECMG 1817/1819 33020G30KT